Weather History for KLMT - August, 2013

Change the Weather History Date:

Thursday, August 22, 2013

  Actual Average Record
Temperature  
Mean Temperature 62 °F 64 °F  
Max Temperature 79 °F 82 °F 92 °F (1982)
Min Temperature 45 °F 46 °F 34 °F (1968)
Degree Days  
Heating Degree Days 3 2  
Month to date heating degree days 38 37  
Since 1 June heating degree days 217 304  
Since 1 July heating degree days 39 87  
Cooling Degree Days 0 1  
Month to date cooling degree days 47 54  
Year to date cooling degree days 265 148  
Since 1 June cooling degree days 265 147  
Growing Degree Days 12 (Base 50)    
Moisture  
Dew Point 49 °F    
Average Humidity 69    
Maximum Humidity 100    
Minimum Humidity 40    
Precipitation  
Precipitation 0.06 in 0.01 in 1.04 in (1948)
Month to date precipitation 0.11 0.26  
Year to date precipitation 4.66 9.57  
Sea Level Pressure  
Sea Level Pressure 29.98 in    
Wind  
Wind Speed 5 mph (NNE)    
Max Wind Speed 29 mph    
Max Gust Speed 36 mph    
Visibility 9 miles    
Events Rain , Thunderstorm    
T = Trace of Precipitation, MM = Missing Value Source: NWS Daily Summary

Daily Weather History Graph

Daily Weather History Graph

Search for Another Location

Airport or City:

Trip Planner

Search our weather history database for the weather conditions in past years. The results will help you decide how hot, cold, wet, or windy it might be!

Date:

Astronomy

Aug. 22, 2013 Rise Set
Actual Time 6:22 AM PDT 7:56 PM PDT
Civil Twilight 5:52 AM PDT 8:25 PM PDT
Nautical Twilight 5:16 AM PDT 9:01 PM PDT
Astronomical Twilight 4:38 AM PDT 9:39 PM PDT
Moon 8:39 PM PDT (8/22) 8:20 AM PDT (8/22)
Length of Visible Light 14h 33m
Length of Day
13h 34m
Waning Gibbous, 96% of the Moon is Illuminated
Aug 22
Waning Gibbous
Aug 28
Last Quarter
Sep 5
New
Sep 12
First Quarter
Sep 19
Full

Hourly Weather History & Observations

Time (PDT) Temp. Dew Point Humidity Pressure Visibility Wind Dir Wind Speed Gust Speed Precip Events Conditions
12:53 AM 59.0 °F 52.0 °F 78% 29.95 in 10.0 mi SE 3.5 mph - N/A   Clear
1:53 AM 62.1 °F 48.9 °F 62% 29.94 in 10.0 mi Calm Calm - N/A   Clear
2:53 AM 57.0 °F 50.0 °F 77% 29.94 in 10.0 mi Calm Calm - N/A   Clear
3:53 AM 55.0 °F 48.9 °F 80% 29.93 in 10.0 mi South 3.5 mph - N/A   Clear
4:53 AM 51.1 °F 46.9 °F 86% 29.94 in 10.0 mi Calm Calm - N/A   Clear
5:53 AM 52.0 °F 48.0 °F 86% 29.95 in 10.0 mi Calm Calm - N/A   Clear
6:53 AM 53.1 °F 48.9 °F 86% 29.96 in 10.0 mi Calm Calm - N/A   Clear
7:53 AM 57.0 °F 51.1 °F 81% 29.98 in 10.0 mi Calm Calm - N/A   Partly Cloudy
8:48 AM 62.6 °F 50.0 °F 63% 30.10 in 10.0 mi Variable 4.6 mph - 0.00 in Thunderstorm Mostly Cloudy
8:53 AM 62.1 °F 51.1 °F 67% 29.99 in 10.0 mi ESE 6.9 mph - 0.00 in Rain , Thunderstorm Light Rain
9:09 AM 62.6 °F 51.8 °F 68% 30.12 in 10.0 mi South 19.6 mph 23.0 mph 0.01 in Rain , Thunderstorm Light Rain
9:22 AM 60.8 °F 51.8 °F 72% 30.11 in 8.0 mi SSW 24.2 mph 35.7 mph 0.01 in Rain , Thunderstorm Light Rain
9:53 AM 61.0 °F 51.1 °F 70% 29.96 in 10.0 mi WSW 8.1 mph - 0.03 in   Mostly Cloudy
10:53 AM 64.0 °F 53.1 °F 67% 29.94 in 10.0 mi NE 11.5 mph - N/A   Scattered Clouds
11:53 AM 71.1 °F 52.0 °F 51% 29.94 in 10.0 mi ENE 6.9 mph - N/A   Scattered Clouds
12:53 PM 73.0 °F 50.0 °F 44% 29.94 in 8.0 mi NE 6.9 mph - N/A   Clear
1:53 PM 77.0 °F 51.1 °F 40% 29.90 in 10.0 mi ENE 12.7 mph 16.1 mph N/A   Clear
2:53 PM 73.9 °F 52.0 °F 46% 29.90 in 10.0 mi East 12.7 mph - N/A   Scattered Clouds
3:53 PM 78.1 °F 51.1 °F 39% 29.88 in 10.0 mi ENE 8.1 mph - N/A   Partly Cloudy
4:18 PM 68.0 °F 42.8 °F 40% 30.02 in 10.0 mi WNW 24.2 mph 29.9 mph N/A   Mostly Cloudy
4:38 PM 68.0 °F 42.8 °F 40% 30.02 in 10.0 mi NW 17.3 mph 24.2 mph N/A Thunderstorm Scattered Clouds
4:53 PM 63.0 °F 46.9 °F 56% 29.97 in 6.0 mi NW 15.0 mph - 0.02 in Rain , Thunderstorm Rain
5:04 PM 62.6 °F 48.2 °F 59% 30.04 in 10.0 mi NW 15.0 mph - 0.00 in Rain Light Rain
5:25 PM 60.8 °F 50.0 °F 68% 30.05 in 10.0 mi NNW 10.4 mph - 0.00 in Thunderstorm Thunderstorm
5:53 PM 61.0 °F 48.9 °F 64% 29.98 in 10.0 mi NNW 10.4 mph - 0.01 in   Scattered Clouds
6:53 PM 60.1 °F 51.1 °F 72% 29.97 in 10.0 mi Calm Calm - N/A   Clear
7:53 PM 57.0 °F 52.0 °F 83% 29.96 in 10.0 mi WSW 3.5 mph - N/A   Clear
8:53 PM 53.1 °F 50.0 °F 89% 29.97 in 10.0 mi Calm Calm - N/A   Clear
9:53 PM 51.1 °F 48.9 °F 92% 29.99 in 10.0 mi Calm Calm - N/A   Clear
10:53 PM 48.0 °F 46.0 °F 93% 29.98 in 10.0 mi Calm Calm - N/A   Clear
11:53 PM 46.9 °F 46.0 °F 97% 29.97 in 4.0 mi Calm Calm - N/A   Clear
11:57 PM 48.2 °F 46.4 °F 93% 30.05 in 1.5 mi Calm Calm - N/A   Clear